User: anonymous   Login
Location: Multiple Mirror Telescope
(31.6889°N, 110.8853°W)
Time: 05:28:55
(UTC-07:00)
Language:

Tiangong - Orbit

View from above orbital plane
View from above orbital plane
View from above satellite
View from above satellite

Ground track
Ground track

The orbit data is extracted from the following two-line orbital elements,

1 48274U 21035A   24054.12557324  .00034404  00000-0  38121-3 0  9993
2 48274  41.4683  66.1786 0008407   7.6155 352.4811 15.62220405161087
Epoch (UTC): 23 February 2024 03:00:49
Eccentricity: 0.0008407
inclination: 41.4683°
perigee height: 375 km
apogee height: 387 km
right ascension of ascending node: 66.1786°
argument of perigee: 7.6155°
revolutions per day: 15.62220405
mean anomaly at epoch: 352.4811°
orbit number at epoch: 16108

The dashed part of the orbit path shows where the satellite is in the earth's shadow,  

DLR